Location: Stara Lesna
(49.1528°N, 20.2911°E)
Time: 10:11:16
(UTC+02:00)

Cosmos 2100 Rocket - Pass Details

Date: 13 July 2020
Orbit: 955 x 1002 km, 82.9° (Epoch: 05 August)

Event Time Altitude Azimuth Distance (km) Brightness Sun altitude
Exits shadow 02:18:51 23° 191° (SSW) 1,947 5.0 -16.0°
Maximum altitude 02:22:58 84° 279° (W) 991 4.0 -15.8°
Drops below altitude 10° 02:29:14 10° 8° (N) 2,726 7.6 -15.3°
Sets 02:31:45 0° 10° (N) 3,670 8.6 -15.2°
